This is the latest recevied weather packets stored in our database for station/object KN6CW-3. If no packets are shown the sender has not sent any weather packets the latest 10 day(s).
| Time | Temp. | Humidity | Pressure | Rain* | Wind** | Luminosity | Snow |
|---|---|---|---|---|---|---|---|
| 1777995555 | 21.11° C | 55% | 1009.4 hPa | 0 mm | - | 861 W/m² | - |
| 1777995255 | 21.11° C | 55% | 1009.5 hPa | 0 mm | - | 867 W/m² | - |
| 1777994955 | 20.56° C | 57% | 1009.5 hPa | 0 mm | - | 853 W/m² | - |
| 1777994354 | 20.56° C | 59% | 1009.5 hPa | 0 mm | - | 828 W/m² | - |
| 1777994054 | 20.56° C | 60% | 1009.7 hPa | 0 mm | - | 830 W/m² | - |
| 1777993753 | 20° C | 60% | 1009.7 hPa | 0 mm | - | 823 W/m² | - |
| 1777993453 | 20° C | 60% | 1009.8 hPa | 0 mm | - | 793 W/m² | - |
| 1777993153 | 19.44° C | 60% | 1010 hPa | 0 mm | - | 796 W/m² | - |
| 1777992852 | 19.44° C | 61% | 1009.9 hPa | 0 mm | - | 798 W/m² | - |
| 1777992552 | 19.44° C | 61% | 1009.9 hPa | 0 mm | - | 789 W/m² | - |
| 1777992252 | 19.44° C | 62% | 1009.5 hPa | 0 mm | - | 779 W/m² | - |
| 1777991952 | 18.89° C | 65% | 1009.6 hPa | 0 mm | - | 770 W/m² | - |
| 1777991651 | 18.89° C | 64% | 1009.6 hPa | 0 mm | - | 758 W/m² | - |
| 1777991351 | 18.33° C | 65% | 1009.6 hPa | 0 mm | - | 744 W/m² | - |
| 1777991051 | 18.33° C | 65% | 1010.1 hPa | 0 mm | - | 733 W/m² | - |
| 1777990751 | 18.33° C | 67% | 1010.1 hPa | 0 mm | - | 719 W/m² | - |
| 1777990450 | 17.78° C | 68% | 1010.2 hPa | 0 mm | - | 708 W/m² | - |
| 1777989849 | 17.22° C | 68% | 1010.2 hPa | 0 mm | - | 684 W/m² | - |
| 1777989249 | 17.22° C | 69% | 1010.3 hPa | 0 mm | - | 659 W/m² | - |
| 1777988949 | 16.67° C | 70% | 1010.4 hPa | 0 mm | - | 645 W/m² | - |
| 1777988648 | 16.67° C | 70% | 1010.4 hPa | 0 mm | - | 631 W/m² | - |
| 1777988348 | 16.67° C | 68% | 1010.4 hPa | 0 mm | - | 617 W/m² | - |
| 1777988048 | 16.67° C | 69% | 1010.5 hPa | 0 mm | - | 612 W/m² | - |
| 1777987748 | 16.67° C | 69% | 1010.5 hPa | 0 mm | - | 594 W/m² | - |
| 1777987447 | 16.67° C | 71% | 1010.4 hPa | 0 mm | - | 582 W/m² | - |
* Rain latest hour (hover to see other rain measurements)
** Current wind speed in m/s (hover to see current wind gust speed)